Weather in Otradnoye

Russia / Bryansk Oblast     53°19′39″N   34°10′23″E
temp.,
°C
wind,
m/s
gust,
m/s
humid.,
%
clouds,
%
prec.,
mm/h
press.,
hPa
HPBL,
m
28 july, wed
wed2800:00+18ese2281100 0.0 101833
03:00+18ssw2274100 0.1 101737
06:00+18s2272100 0.0 101527
09:00+18se3782100 0.4 1014187
12:00+19s4887100 1.1 1014358
15:00+21s61085100 2.2 1013634
18:00+20s4991100 4.2 1011354
21:00+18ssw23962 5.0 101153
29 july, thu
thu2900:00+18sw34935 0.1 101160
03:00+17sw23958 1.6 101054
06:00+18w259384 0.0 101096
09:00+23w34740 0.0 1009367
12:00+27w46559 0.5 10101318
15:00+29w34435 0.7 10092224
18:00+28sw235252 0.0 1007859
21:00+22sse2266100 0.1 100714
30 july, fri
fri3000:00+19wsw4689100 1.3 1007129
03:00+19w239499 16.0 100669
06:00+18w2699100 0.8 1007244
09:00+21nw4685100 0.8 1007568
12:00+25nw456127 0.1 10081385
15:00+25wnw3559100 0.1 1008926
18:00+24wnw3766100 0.0 1008348
21:00+19w22755 0.0 100818
31 july, sat
sat3100:00+17sw22850 0.0 100921
03:00+16sw347956 0.0 100950
06:00+16sw398181 0.0 1009179
09:00+22wsw586029 0.0 1009472
12:00+26wsw610508 0.0 10091590
15:00+27w69438 0.0 10091924
18:00+26wsw47538 0.0 1009980
21:00+21s226717 0.0 100915
1 august, sun
sun100:00+20sse367293 0.0 100992
03:00+18s4117499 0.0 1008190
06:00+18s41470100 0.0 1007285
09:00+23sw61162100 0.0 1007813
12:00+24w676556 0.0 10081220
15:00+25w565981 0.1 10091312
18:00+25wsw455821 0.0 1009979
21:00+19ssw22775 0.0 100912